Weather Roundup
Issued by NWS Chicago, IL

Home | Current Version | Previous Version | Text Only | Print | Product List | Glossary Off
Versions: 1 2 3 4 5 6 7 8 9 10 11 12 13 14 15 16 17 18 19 20 21 22 23 24 25 26 27 28 29 30 31 32 33 34 35 36 37 38 39 40 41 42 43 44 45 46 47 48 49 50

000
NZUS59 KLOT 111158
HRRLOT

CHICAGO AREA WEATHER ROUNDUP
NATIONAL WEATHER SERVICE CHICAGO/ROMEOVILLE IL
700 AM CDT FRI JUL 11 2014

NOTE: "FAIR" INDICATES FEW OR NO CLOUDS BELOW 12,000 FEET WITH NO
SIGNIFICANT WEATHER AND/OR OBSTRUCTIONS TO VISIBILITY.

* THESE STATIONS ARE NOT UNDER NWS QUALITY CONTROL. THEY ALSO MAY NOT
  REPORT WEATHER SUCH AS PRECIPITATION OR FOG.

ILZ005-006-012>014-019>023-111300-
NORTHEAST ILLINOIS

CITY           SKY/WX    TMP DP  RH WIND       PRES   REMARKS
OHARE          MOSUNNY   64  53  67 S3        30.20R
6HR MIN TEMP:  60; 6HR MAX TEMP:  65;

MIDWAY         MOSUNNY   66  54  65 S6        30.20R
6HR MIN TEMP:  63; 6HR MAX TEMP:  68;

AURORA         SUNNY     61  55  81 CALM      30.21R
6HR MIN TEMP:  54; 6HR MAX TEMP:  61;

WAUKEGAN       SUNNY     63  56  78 CALM      30.20R
6HR MIN TEMP:  56; 6HR MAX TEMP:  63;

DUPAGE AIRPORT SUNNY     62  55  77 CALM      30.20R
6HR MIN TEMP:  57; 6HR MAX TEMP:  62;

WHEELING       SUNNY     64  57  78 CALM      30.21R
6HR MIN TEMP:  60; 6HR MAX TEMP:  64;

NORTHERLY IS     N/A     66  54  65 S2          N/A
$$

WIZ051-052-058>065-066-070>072-111300-
SOUTHEAST WISCONSIN

CITY           SKY/WX    TMP DP  RH WIND       PRES   REMARKS
MILWAUKEE      MOSUNNY   64  52  64 S6        30.20R
6HR MIN TEMP:  59; 6HR MAX TEMP:  64;

KENOSHA*       SUNNY     61  56  83 CALM      30.21R
RACINE*        SUNNY     65  57  75 SW6       30.22R
WAUKESHA       SUNNY     61  50  67 S3        30.20R
$$

INZ001>003-010>013-019-020-111300-
NORTHWEST INDIANA

CITY           SKY/WX    TMP DP  RH WIND       PRES   REMARKS
GARY*          MOSUNNY   61  57  88 SE5       30.21R
MICHIGAN CITY* NOT AVBL
RENSSELAER*    NOT AVBL
VALPARAISO     SUNNY     59  55  87 CALM      30.22R
$$

LMZ740>746-111300-
SOUTHERN LAKE MICHIGAN

STATION/POSITION TIME  SKY/WX   TEMP WIND        PRES    VSBY
                                AIR  DIR/SP/G
                 (UTC)          (F)  (DEG/KT/KT) (MB)    (MI)
HARRISON CRIB    1100            65  190/  8/  9   N/A
BURNHAM HARBOR   1100            64  160/  4/  4   N/A
CALUMET HARBOR   1100            63  180/  3/  4 1023.4R
BURNS HARBOR     NOT AVBL
MICHIGAN CITY    1100            60  120/  8/  9   N/A
$$

ABBREVIATIONS USED IN REMARKS
   TC - TEMPERATURE IN CELSIUS
  WCI - WIND CHILL INDEX
   HX - HEAT INDEX
  VSB - VISIBILITY
$$


USA.gov is the U.S. government's official web portal to all federal, state and local government web resources and services.